This is the latest recevied weather packets stored in our database for station/object KC2BRB-1. If no packets are shown the sender has not sent any weather packets the latest 10 day(s).
| Time | Temp. | Humidity | Pressure | Rain* | Wind** | Luminosity | Snow |
|---|---|---|---|---|---|---|---|
| 1777403579 | 31.11° C | 53% | 1016.7 hPa | 0 mm | - | - | - |
| 1777403279 | 31.67° C | 58% | 1016.8 hPa | 0 mm | - | - | - |
| 1777402979 | 31.67° C | 58% | 1016.8 hPa | 0 mm | - | - | - |
| 1777402834 | 31.11° C | 57% | 1016.7 hPa | 0 mm | - | - | - |
| 1777402679 | 31.11° C | 57% | 1016.7 hPa | 0 mm | - | - | - |
| 1777402379 | 31.11° C | 57% | 1016.7 hPa | 0 mm | - | - | - |
| 1777402079 | 29.44° C | 62% | 1016.7 hPa | 0 mm | - | - | - |
| 1777401839 | 29.44° C | 62% | 1016.7 hPa | 0 mm | - | - | - |
| 1777401779 | 29.44° C | 62% | 1016.7 hPa | 0 mm | - | - | - |
| 1777401514 | 28.89° C | 60% | 1017.1 hPa | 0 mm | - | - | - |
| 1777401479 | 28.89° C | 60% | 1017.1 hPa | 0 mm | - | - | - |
| 1777401179 | 28.89° C | 60% | 1017.1 hPa | 0 mm | - | - | - |
| 1777400924 | 29.44° C | 60% | 1016.8 hPa | 0 mm | - | - | - |
| 1777400879 | 29.44° C | 60% | 1016.8 hPa | 0 mm | - | - | - |
| 1777400687 | 29.44° C | 60% | 1016.8 hPa | 0 mm | - | - | - |
| 1777400579 | 29.44° C | 60% | 1016.8 hPa | 0 mm | - | - | - |
| 1777400384 | 30° C | 59% | 1016.8 hPa | 0 mm | - | - | - |
| 1777400279 | 30° C | 59% | 1016.8 hPa | 0 mm | - | - | - |
| 1777400035 | 30° C | 59% | 1016.8 hPa | 0 mm | - | - | - |
| 1777399979 | 30° C | 59% | 1016.8 hPa | 0 mm | - | - | - |
| 1777399679 | 30° C | 61% | 1016.8 hPa | 0 mm | - | - | - |
| 1777399612 | 30° C | 61% | 1016.8 hPa | 0 mm | - | - | - |
| 1777399379 | 30° C | 61% | 1016.8 hPa | 0 mm | - | - | - |
| 1777399316 | 30.56° C | 58% | 1016.8 hPa | 0 mm | - | - | - |
| 1777399079 | 30.56° C | 58% | 1016.8 hPa | 0 mm | - | - | - |
* Rain latest hour (hover to see other rain measurements)
** Current wind speed in m/s (hover to see current wind gust speed)